Regional Weather Roundup
Issued by NWS

Home | Current Version | Previous Version | Text Only | Print | Product List | Glossary Off
Versions: 1 2 3 4 5 6 7 8 9 10 11 12 13 14 15 16 17 18 19 20 21 22 23 24 25 26 27 28 29 30 31 32 33 34 35 36 37 38 39 40 41 42 43 44 45 46 47 48 49 50

000
ASUS43 KLSX 050459
RWRMO

WEATHER SUMMARY FOR MISSOURI
NATIONAL WEATHER SERVICE SPRINGFIELD MO
1100 PM CST WED MAR 04 2015

NOTE: "FAIR" INDICATES FEW OR NO CLOUDS BELOW 12,000 FEET WITH NO
       SIGNIFICANT WEATHER AND/OR OBSTRUCTIONS TO VISIBILITY.
       CURRENT SKY AND/OR WEATHER CONDITIONS ARE NOT AVAILABLE FOR
       CHILLICOTHE AND FARMINGTON.

MOZ001>031-035>038-043-044-053-054-050600-
...NORTHERN AND WESTERN MISSOURI...

CITY           SKY/WX    TMP DP  RH WIND       PRES   REMARKS
KANSAS CTY INT PTCLDY    18   3  52 N9        30.41R WCI   7
KANSAS C DTWN  MOCLDY    25   2  37 N10       30.43R WCI  15
LEE`S SUMMIT   MOCLDY    25   6  44 N15       30.41R WCI  13
ST JOSEPH      FAIR      17   4  56 N9        30.47R WCI   6
CHILLICOTHE      N/A     21   5  50 N7G16     30.45R WCI  12

$$
MOZ066>068-077>081-088>096-101>105-050600-
...SOUTHWEST MISSOURI...

CITY           SKY/WX    TMP DP  RH WIND       PRES   REMARKS
SPRINGFIELD    CLOUDY    23   9  55 N9        30.34S WCI  13
JOPLIN         CLOUDY    24   8  50 N6        30.39S WCI  17

$$
MOZ032>034-039>042-045>050-055>058-069>072-050600-
...CENTRAL MISSOURI...

CITY           SKY/WX    TMP DP  RH WIND       PRES   REMARKS
COLUMBIA       PTCLDY    21   7  54 CALM      30.38R
JEFFERSON CITY PTCLDY    23   6  48 CALM      30.41R
ROLLA          CLOUDY    21   6  52 N3        30.35R
SEDALIA        FAIR      22   6  50 W3        30.40R
OSAGE BEACH    MOCLDY    21   9  58 CALM      30.38S

$$
MOZ051-052-059>065-050600-
...EAST CENTRAL MISSOURI...

CITY           SKY/WX    TMP DP  RH WIND       PRES   REMARKS
ST LOUIS INTL  CLOUDY    22   4  46 N6        30.40R WCI  14
SPIRIT OF STL  CLOUDY    22   0  38 N6        30.39S WCI  14
ST CHARLES     CLOUDY    21   5  50 N5        30.40F WCI  15

$$
MOZ072>076-082>087-097>100-106>115-050600-
...SOUTH CENTRAL AND SOUTHEAST MISSOURI...

CITY           SKY/WX    TMP DP  RH WIND       PRES   REMARKS
CAPE GIRARDEAU CLOUDY    20  14  77 N10       30.34R WCI   9
FARMINGTON     CLOUDY    19   7  58 N7        30.33F WCI  10
POPLAR BLUFF   CLOUDY    20  13  74 NE12      30.33R HAZE    WCI   8
WEST PLAINS    CLOUDY    20   8  60 N9        30.29F WCI   9

$$


USA.gov is the U.S. government's official web portal to all federal, state and local government web resources and services.